Simultaneous Nadir Overpasses (SNOs) Predictions

Prediction of SNOs between METOP-B and NOAA-19 Satellite Orbit:

Table of predicted SNOs for the next 14.0 days since TLE Epoch: 6/29/2013
Index Date (METOP-B) Time (METOP-B) Lat,Lon (METOP-B) SZA (METOP-B ) Date (NOAA-19) Time (NOAA-19) Lat,Lon (NOAA-19) SZA (NOAA-19 ) Distance(km) Time Diff (sec)
1 07/04/2013 02:41:09 73.45, 133.48 50.65 07/04/2013 02:39:55 73.49, 133.06 50.73 14.03 74
2 07/04/2013 03:31:52 -73.37, -59.37 129.42 07/04/2013 03:30:58 -73.36, -59.41 129.42 1.56 54
3 07/04/2013 04:22:33 73.32, 107.86 50.55 07/04/2013 04:21:56 73.32, 107.95 50.54 2.73 37
4 07/04/2013 05:13:15 -73.30, -84.87 129.48 07/04/2013 05:13:01 -73.29, -84.76 129.49 3.74 14
5 07/04/2013 06:03:55 73.30, 82.47 50.53 07/04/2013 06:04:00 73.30, 82.48 50.52 0.87 5
6 07/04/2013 06:54:37 -73.28,-110.25 129.49 07/04/2013 06:55:05 -73.26,-110.22 129.51 1.97 28
7 07/04/2013 07:45:17 73.28, 57.09 50.52 07/04/2013 07:46:04 73.27, 57.02 50.50 2.41 47
8 07/04/2013 08:35:59 -73.26,-135.64 129.50 07/04/2013 08:37:09 -73.24,-135.68 129.53 2.37 70
9 07/04/2013 09:26:50 72.70, 30.51 50.01 07/04/2013 09:27:58 72.75, 32.66 49.94 71.00 68




NCC Satellite Simultaneous Nadir Overpasses (SNOs) Prediction Service
